Regional Weather Roundup
Issued by NWS

Home | Current Version | Previous Version | Graphics & Text | Print | Product List | Glossary On
Versions: 1 2 3 4 5 6 7 8 9 10 11 12 13 14 15 16 17 18 19 20 21 22 23 24 25 26 27 28 29 30 31 32 33 34 35 36 37 38 39 40 41 42 43 44 45 46 47 48 49 50
000
ASUS45 KABQ 241401
RWRNM
NEW MEXICO REGIONAL WEATHER ROUNDUP
NATIONAL WEATHER SERVICE ALBUQUERQUE NM
800 AM MDT SUN JUL 24 2016

NOTE: "FAIR" MEANS FEW OR NO CLOUDS BELOW 12,000 FEET AGL WITH NO
       SIGNIFICANT WEATHER OR OBSTRUCTIONS TO VISION.

      THIS PRODUCT IS RELEASED AS TWO VERSIONS.  ONE VERSION NEAR
      THE TOP OF THE HOUR CONTAINING PRELIMINARY DATA FROM ALBUQUERQUE
      AND OTHER STATIONS.  A FINAL VERSION WITH ADDITIONAL DATA IS
      ISSUED ABOUT 10 MINUTES AFTER THE HOUR.

NMZ501-503-504-510>518-241500-
NORTHWEST PLATEAU/NORTHCENTRAL MOUNTAINS

CITY           SKY/WX    TMP DP  RH WIND       PRES   REMARKS
FARMINGTON     FAIR      72  43  35 E12       30.17R
LOS ALAMOS     FAIR      70  46  42 N6        30.31S
SANTA FE       FAIR      71  54  54 N8        30.24R
TAOS           FAIR      64  37  36 N7        30.33R
ANGEL FIRE     FAIR      56  48  75 CALM      30.45R

$$
NMZ402-403-502-505>509-241500-
WESTCENTRAL MOUNTAINS/SOUTHWEST MOUNTAINS

CITY           SKY/WX    TMP DP  RH WIND       PRES   REMARKS
GALLUP         FAIR      67  51  56 NW3       30.27R
GRANTS         FAIR      69  52  55 CALM      30.29R

$$
NMZ407-409-411-412-241500-
SOUTHERN DESERTS

CITY           SKY/WX    TMP DP  RH WIND       PRES   REMARKS
LORDSBURG      FAIR      79  50  36 N6        30.10R
DEMING         FAIR      77  49  37 W6        30.07R
LAS CRUCES     FAIR      83  44  25 NW5       30.07R
T OR C         FAIR      80  46  30 NW7       30.09R

$$
NMZ519>523-241500-
CENTRAL VALLEYS/CENTRAL HIGHLANDS

CITY           SKY/WX    TMP DP  RH WIND       PRES   REMARKS
ALBUQUERQUE    FAIR      77  50  38 CALM      30.16R
DOUBLE EAGLE   MOSUNNY   70  48  46 W6        30.20R
MORIARTY ARPT  FAIR      70  48  45 W3        30.25R
CLINES CORNERS CLOUDY    69  47  45 NE7       30.31R
BELEN          NOT AVBL
SOCORRO        FAIR      77  48  35 N7        30.11R

$$
NMZ524>526-539-540-241500-
SOUTHCENTRAL MOUNTAINS

CITY           SKY/WX    TMP DP  RH WIND       PRES   REMARKS
RUIDOSO        NOT AVBL

$$
NMZ527>531-241500-
NORTHEAST HIGHLANDS/NORTHEAST PLAINS

CITY           SKY/WX    TMP DP  RH WIND       PRES   REMARKS
LAS VEGAS      FAIR      71  49  45 N8        30.31R
RATON          FAIR      71  50  47 E3        30.26R
CLAYTON        FAIR      76  57  51 NW7       30.16R

$$
NMZ532>537-241500-
EASTCENTRAL PLAINS

CITY           SKY/WX    TMP DP  RH WIND       PRES   REMARKS
TUCUMCARI      FAIR      82  51  34 W5        30.10R
CANNON AFB     FAIR      79  56  46 S12       30.12R
CLOVIS AIRPORT FAIR      79  55  44 S9        30.13R

$$
NMZ028-029-538-241500-
SOUTHEAST PLAINS

CITY           SKY/WX    TMP DP  RH WIND       PRES   REMARKS
ROSWELL        FAIR      81  53  37 SE8       30.05R
ARTESIA        FAIR      79  57  47 SE8       30.04R
CARLSBAD       FAIR      81  56  42 SE8       30.02R
HOBBS          SUNNY     79  57  47 SE12G17   30.08R


$$




USA.gov is the U.S. government's official web portal to all federal, state and local government web resources and services.